User: anonymous   Login
Location: Kapla
(46.2483°N, 15.0094°E)
Time: 18:43:24
(UTC+00:00)
Language:

N. Korean satellite - Orbit

View from above orbital plane
View from above orbital plane
View from above satellite
View from above satellite

Ground track
Ground track

The orbit data is extracted from the following two-line orbital elements,

1 39026U 12072A   21172.66976862  .00002079  00000-0  72259-4 0  9992
2 39026  97.2435 165.4305 0035965  12.4781 347.7342 15.30258110473737
Epoch (UTC): 21 June 2021 16:04:28
Eccentricity: 0.0035965
inclination: 97.2435°
perigee height: 450 km
apogee height: 499 km
right ascension of ascending node: 165.4305°
argument of perigee: 12.4781°
revolutions per day: 15.30258110
mean anomaly at epoch: 347.7342°
orbit number at epoch: 47373

The dashed part of the orbit path shows where the satellite is in the earth's shadow,  

DLR